Freeport, IL

11:08 PM CST on December 09, 2019 (GMT -0600)
Albertus

Weather History for KFEP - October, 2019

Change the Weather History Date:

Tuesday, October 8, 2019

  Actual Average Record
Temperature  
Mean Temperature 53 °F -  
Max Temperature 69 °F 64 °F 83 °F (1993)
Min Temperature 38 °F 39 °F 24 °F (1987)
Degree Days  
Heating Degree Days 12    
Growing Degree Days 3 (Base 50)    
Moisture  
Dew Point 42 °F    
Average Humidity 70    
Maximum Humidity 100    
Minimum Humidity 37    
Precipitation  
Precipitation 0.10 in - - ()
Sea Level Pressure  
Sea Level Pressure 30.19 in    
Wind  
Wind Speed 3 mph (South)    
Max Wind Speed 14 mph    
Max Gust Speed 18 mph    
Visibility 10 miles    
Events Fog    
Averages and records for this station are not official NWS values.
T = Trace of Precipitation, MM = Missing Value Source: NWS Daily Summary

Daily Weather History Graph

Daily Weather History Graph

Search for Another Location

Airport or City:

Astronomy

Oct. 08, 2019 Rise Set
Actual Time 7:02 AM CDT 6:28 PM CDT
Civil Twilight 6:34 AM CDT 6:56 PM CDT
Nautical Twilight 6:02 AM CDT 7:28 PM CDT
Astronomical Twilight 5:29 AM CDT 8:01 PM CDT
Moon 4:33 PM CDT (10/8) 1:44 AM CDT (10/8)
Length of Visible Light 12h 21m
Length of Day
11h 25m
Waxing Gibbous, 78% of the Moon is Illuminated
Oct 8
Waxing Gibbous
Oct 13
Full
Oct 21
Last Quarter
Oct 27
New
Nov 4
First Quarter

Hourly Weather History & Observations

Time (CDT) Temp. Windchill Dew Point Humidity Pressure Visibility Wind Dir Wind Speed Gust Speed Precip Events Conditions
12:15 AM 42.3 °F - 41.5 °F 97% 30.22 in 10.0 mi Calm Calm - N/A   Clear
1:10 AM 43.3 °F - 41.4 °F 93% 30.21 in 10.0 mi Calm Calm - N/A   Clear
1:35 AM 43.3 °F - 41.2 °F 92% 30.22 in 10.0 mi Calm Calm - N/A   Clear
1:55 AM 44.8 °F 43.3 °F 41.0 °F 87% 30.22 in 10.0 mi South 3.5 mph - N/A   Clear
2:15 AM 43.9 °F - 40.6 °F 88% 30.22 in 10.0 mi Calm Calm - N/A   Clear
2:35 AM 42.3 °F 40.5 °F 40.6 °F 94% 30.22 in 10.0 mi South 3.5 mph - N/A   Clear
2:55 AM 41.4 °F - 40.3 °F 96% 30.22 in 10.0 mi Calm Calm - N/A   Clear
3:15 AM 41.2 °F - 39.7 °F 95% 30.22 in 10.0 mi Calm Calm - N/A   Clear
3:35 AM 43.2 °F 41.5 °F 40.3 °F 90% 30.22 in 10.0 mi South 3.5 mph - N/A   Clear
3:55 AM 43.5 °F - 40.5 °F 89% 30.22 in 10.0 mi Calm Calm - N/A   Clear
4:15 AM 41.4 °F - 41.4 °F 100% 30.22 in 10.0 mi Calm Calm - N/A   Clear
4:35 AM 41.2 °F - 41.2 °F 100% 30.23 in 10.0 mi Calm Calm - N/A   Clear
4:55 AM 40.6 °F - 40.6 °F 100% 30.23 in 10.0 mi Calm Calm - N/A   Clear
5:15 AM 41.9 °F - 40.8 °F 96% 30.23 in 10.0 mi Calm Calm - N/A   Clear
5:35 AM 40.5 °F - 40.3 °F 99% 30.23 in 10.0 mi Calm Calm - N/A   Clear
5:55 AM 41.0 °F - 40.8 °F 99% 30.23 in 10.0 mi Calm Calm - N/A   Clear
6:15 AM 38.3 °F - 38.3 °F 100% 30.24 in 10.0 mi Calm Calm - N/A   Clear
6:35 AM 39.0 °F - 39.0 °F 100% 30.23 in 10.0 mi Calm Calm - N/A   Clear
6:55 AM 40.1 °F - 39.7 °F 99% 30.24 in 10.0 mi Calm Calm - N/A   Clear
7:15 AM - - - N/A% - - North - - N/A   Unknown
7:35 AM 40.8 °F - 40.1 °F 97% 30.23 in 0.2 mi Calm Calm - 0.10 in Fog Fog
7:55 AM 41.9 °F - 41.9 °F 100% 30.23 in 0.2 mi Calm Calm - N/A Fog Fog
8:15 AM 45.3 °F - 45.1 °F 99% 30.24 in 10.0 mi Calm Calm - N/A   Clear
8:35 AM 48.0 °F - 45.1 °F 90% 30.24 in 10.0 mi Calm Calm - N/A   Clear
8:55 AM 50.9 °F - 47.5 °F 88% 30.24 in 10.0 mi Calm Calm - N/A   Clear
9:15 AM 56.1 °F - 45.5 °F 68% 30.24 in 10.0 mi South 5.8 mph - N/A   Clear
9:35 AM 57.4 °F - 44.1 °F 61% 30.24 in 10.0 mi South 6.9 mph - N/A   Clear
9:55 AM 59.4 °F - 45.1 °F 59% 30.24 in 10.0 mi South 6.9 mph - N/A   Clear
10:15 AM 61.2 °F - 45.3 °F 56% 30.24 in 10.0 mi South 10.4 mph - N/A   Clear
10:35 AM 62.8 °F - 45.5 °F 53% 30.24 in 10.0 mi South 9.2 mph - N/A   Clear
10:55 AM 64.0 °F - 44.6 °F 49% 30.23 in 10.0 mi South 9.2 mph - N/A   Clear
11:15 AM 64.8 °F - 43.0 °F 45% 30.23 in 10.0 mi South 10.4 mph - N/A   Clear
11:35 AM 65.3 °F - 43.0 °F 44% 30.22 in 10.0 mi SSW 10.4 mph - N/A   Clear
11:55 AM 66.4 °F - 41.7 °F 41% 30.22 in 10.0 mi SSW 9.2 mph - N/A   Clear
12:15 PM 66.9 °F - 41.7 °F 40% 30.21 in 10.0 mi South 10.4 mph - N/A   Clear
12:35 PM 67.6 °F - 41.9 °F 39% 30.21 in 10.0 mi South 13.8 mph - N/A   Clear
12:55 PM 67.5 °F - 40.3 °F 37% 30.20 in 10.0 mi South 12.7 mph 17.3 mph N/A   Clear
1:15 PM 67.6 °F - 40.8 °F 38% 30.19 in 10.0 mi South 12.7 mph 17.3 mph N/A   Clear
1:35 PM 68.2 °F - 41.2 °F 37% 30.18 in 10.0 mi South 5.8 mph - N/A   Clear
1:55 PM 68.4 °F - 41.7 °F 38% 30.17 in 10.0 mi South 8.1 mph - N/A   Clear
2:15 PM 68.4 °F - 41.4 °F 37% 30.16 in 10.0 mi SSW 11.5 mph 17.3 mph N/A   Clear
2:35 PM 68.5 °F - 41.9 °F 38% 30.16 in 10.0 mi SSW 10.4 mph 18.4 mph N/A   Clear
2:55 PM 68.5 °F - 41.2 °F 37% 30.16 in 10.0 mi SW 11.5 mph 17.3 mph N/A   Clear
3:35 PM 68.4 °F - 41.4 °F 37% 30.15 in 10.0 mi SSW 10.4 mph - N/A   Clear
3:55 PM 68.2 °F - 41.7 °F 38% 30.14 in 10.0 mi South 9.2 mph - N/A   Clear
4:15 PM 68.0 °F - 41.4 °F 38% 30.14 in 10.0 mi South 8.1 mph - N/A   Clear
4:35 PM 67.5 °F - 40.3 °F 37% 30.14 in 10.0 mi South 10.4 mph - N/A   Clear
4:55 PM 67.1 °F - 40.3 °F 38% 30.14 in 10.0 mi South 8.1 mph 16.1 mph N/A   Clear
5:15 PM 66.4 °F - 41.0 °F 40% 30.13 in 10.0 mi South 6.9 mph - N/A   Clear
5:35 PM 65.1 °F - 41.2 °F 42% 30.13 in 10.0 mi South 5.8 mph - N/A   Clear
5:55 PM 63.1 °F - 41.9 °F 46% 30.13 in 10.0 mi South 5.8 mph - N/A   Clear
6:15 PM 60.3 °F - 42.8 °F 53% 30.12 in 10.0 mi SSE 4.6 mph - N/A   Clear
6:35 PM 56.7 °F - 44.1 °F 63% 30.12 in 10.0 mi SSE 5.8 mph - N/A   Clear
6:55 PM 54.5 °F - 43.9 °F 67% 30.12 in 10.0 mi SSE 5.8 mph - N/A   Clear
7:15 PM 53.1 °F - 44.4 °F 72% 30.13 in 10.0 mi SSE 4.6 mph - N/A   Clear
7:35 PM 52.7 °F - 44.4 °F 73% 30.13 in 10.0 mi SSE 5.8 mph - N/A   Clear
7:55 PM 52.2 °F - 44.2 °F 74% 30.13 in 10.0 mi SSE 5.8 mph - N/A   Clear
8:15 PM 50.4 °F - 43.5 °F 77% 30.13 in 10.0 mi SSE 5.8 mph - N/A   Clear
8:35 PM 50.5 °F - 43.2 °F 76% 30.13 in 10.0 mi SSE 5.8 mph - N/A   Clear
8:55 PM 51.4 °F - 43.2 °F 73% 30.13 in 10.0 mi SSE 6.9 mph - N/A   Clear
9:15 PM 50.0 °F - 43.5 °F 78% 30.13 in 10.0 mi SSE 4.6 mph - N/A   Clear
9:35 PM 49.3 °F - 42.4 °F 77% 30.13 in 10.0 mi SSE 5.8 mph - N/A   Clear
9:55 PM 48.9 °F - 42.8 °F 79% 30.13 in 10.0 mi SSE 4.6 mph - N/A   Clear
10:15 PM 48.7 °F - 42.1 °F 78% 30.13 in 10.0 mi SSE 4.6 mph - N/A   Clear
10:35 PM 47.3 °F - 42.6 °F 84% 30.13 in 10.0 mi SSE 3.5 mph - N/A   Clear
10:55 PM 48.2 °F - 42.1 °F 79% 30.13 in 10.0 mi SSE 4.6 mph - N/A   Clear
11:15 PM 47.8 °F - 41.9 °F 80% 30.13 in 10.0 mi SSE 4.6 mph - N/A   Clear
11:35 PM 48.0 °F - 42.1 °F 80% 30.13 in 10.0 mi SSE 4.6 mph - N/A   Clear
11:55 PM 45.3 °F 44.0 °F 41.9 °F 88% 30.13 in 10.0 mi SSE 3.5 mph - N/A   Clear